User: anonymous   Login
Location: downtown San Diego
(32.7310°N, 117.1990°W)
Time: 14:48:03
(UTC-07:00)
Language:

Cosmos 1954 Rocket - Orbit

View from above orbital plane
View from above orbital plane
View from above satellite
View from above satellite

Ground track
Ground track

The orbit data is extracted from the following two-line orbital elements,

1 19257U 88053B   19077.48152841  .00000076  00000-0  34029-4 0  9990
2 19257  74.0475 121.1994 0021227 216.5522 245.5866 14.37427728610623
Epoch (UTC): 18 March 2019 11:33:24
Eccentricity: 0.0021227
inclination: 74.0475°
perigee height: 752 km
apogee height: 782 km
right ascension of ascending node: 121.1994°
argument of perigee: 216.5522°
revolutions per day: 14.37427728
mean anomaly at epoch: 245.5866°
orbit number at epoch: 61062

The dashed part of the orbit path shows where the satellite is in the earth's shadow,  

DLR